Location: Unspecified
(0.0000°N, 0.0000°E)
Time: 13:18:39
(UTC+00:00)

Hubble Space Telescope - Pass Details

Date: 02 April 2020
Orbit: 536 x 540 km, 28.5° (Epoch: 01 April)

Event Time Altitude Azimuth Distance (km) Brightness Sun altitude
Rises 18:20:25 0° 249° (WSW) 2,668 5.7 -4.2°
Reaches altitude 10° 18:22:44 10° 255° (WSW) 1,777 4.8 -4.8°
Maximum altitude 18:26:42 49° 330° (NNW) 692 1.6 -5.8°
Drops below altitude 10° 18:30:41 10° 45° (NE) 1,772 3.0 -6.8°
Enters shadow 18:32:52 - 51° (NE) 2,614 3.8 -7.3°
